• In Denmark
  • List of Countries
  • For 7 days
  • Water Temperature
  • Satellite Maps
  • Weather Map
  • Weather Widgets
  • user-avatar
    Login

    Hourly Weather Newcastle

    Today, 21 September, Thursday

    Time Temperature Precipitation Wind Pressure Humidity
    00:00 +10°C° 0 mm 2 mps 763 mmHg 96%
    01:00 +10°C° 0 mm 2 mps 763 mmHg 96%
    02:00 +10°C° 0 mm 2 mps 762 mmHg 96%
    03:00 +10°C° 0 mm 2 mps 762 mmHg 95%
    04:00 +9°C° 0 mm 2 mps 762 mmHg 95%
    05:00 +10°C° 0 mm 2 mps 762 mmHg 89%
    06:00 +10°C° 0 mm 2 mps 762 mmHg 84%
    07:00 +12°C° 0 mm 2 mps 762 mmHg 79%
    08:00 +16°C° 0 mm 2 mps 762 mmHg 64%
    09:00 +19°C° 0 mm 2 mps 762 mmHg 49%
    10:00 +24°C° 0 mm 2 mps 761 mmHg 31%
    11:00 +26°C° 0 mm 2 mps 761 mmHg 28%
    12:00 +28°C° 0 mm 2 mps 760 mmHg 26%
    13:00 +30°C° 0 mm 3 mps 760 mmHg 23%
    14:00 +29°C° 0 mm 3 mps 760 mmHg 26%
    15:00 +29°C° 0 mm 4 mps 759 mmHg 28%
    16:00 +28°C° 0 mm 4 mps 759 mmHg 31%
    17:00 +25°C° 0 mm 4 mps 759 mmHg 39%
    18:00 +21°C° 0 mm 4 mps 759 mmHg 47%
    19:00 +19°C° 0 mm 4 mps 760 mmHg 55%
    20:00 +18°C° 0 mm 4 mps 760 mmHg 56%
    21:00 +17°C° 0 mm 4 mps 760 mmHg 58%
    22:00 +15°C° 0 mm 4 mps 760 mmHg 57%
    23:00 +15°C° 0 mm 4 mps 760 mmHg 56%

    Tomorrow, 22 September, Friday

    Time Temperature Precipitation Wind Pressure Humidity
    00:00 +14°C° 0 mm 3 mps 760 mmHg 54%
    01:00 +14°C° 0 mm 3 mps 760 mmHg 53%
    02:00 +14°C° 0 mm 3 mps 760 mmHg 52%
    03:00 +13°C° 0 mm 3 mps 760 mmHg 52%
    04:00 +13°C° 0 mm 3 mps 760 mmHg 51%
    05:00 +14°C° 0 mm 3 mps 760 mmHg 50%
    06:00 +14°C° 0 mm 3 mps 760 mmHg 49%
    07:00 +16°C° 0 mm 3 mps 761 mmHg 49%
    08:00 +20°C° 0 mm 3 mps 760 mmHg 42%
    09:00 +24°C° 0 mm 3 mps 760 mmHg 35%
    10:00 +28°C° 0 mm 3 mps 760 mmHg 28%
    11:00 +29°C° 0 mm 3 mps 759 mmHg 25%
    12:00 +30°C° 0 mm 3 mps 759 mmHg 21%
    13:00 +33°C° 0 mm 3 mps 758 mmHg 18%
    14:00 +31°C° 0 mm 3 mps 758 mmHg 20%
    15:00 +32°C° 0 mm 4 mps 758 mmHg 22%
    16:00 +32°C° 0 mm 4 mps 757 mmHg 24%
    17:00 +28°C° 0 mm 4 mps 758 mmHg 32%
    18:00 +25°C° 0 mm 4 mps 758 mmHg 40%
    19:00 +21°C° 0 mm 5 mps 758 mmHg 48%
    20:00 +20°C° 0 mm 4 mps 758 mmHg 50%
    21:00 +19°C° 0 mm 4 mps 759 mmHg 53%
    22:00 +18°C° 0 mm 3 mps 759 mmHg 55%
    23:00 +18°C° 0 mm 3 mps 759 mmHg 53%

    Day after tomorrow, 23 September, Saturday

    Time Temperature Precipitation Wind Pressure Humidity
    00:00 +18°C° 0 mm 3 mps 758 mmHg 51%
    01:00 +17°C° 0 mm 3 mps 758 mmHg 49%
    02:00 +17°C° 0 mm 3 mps 758 mmHg 48%
    03:00 +17°C° 0 mm 3 mps 757 mmHg 47%
    04:00 +17°C° 0 mm 3 mps 757 mmHg 46%
    05:00 +18°C° 0 mm 3 mps 757 mmHg 45%
    06:00 +19°C° 0 mm 3 mps 757 mmHg 44%
    07:00 +20°C° 0 mm 3 mps 757 mmHg 42%
    08:00 +24°C° 0 mm 3 mps 757 mmHg 37%
    09:00 +27°C° 0 mm 3 mps 756 mmHg 33%
    10:00 +29°C° 0 mm 3 mps 756 mmHg 28%
    11:00 +32°C° 0 mm 4 mps 755 mmHg 24%
    12:00 +34°C° 0 mm 4 mps 754 mmHg 20%
    13:00 +36°C° 0 mm 4 mps 754 mmHg 16%
    14:00 +36°C° 0 mm 5 mps 753 mmHg 18%
    15:00 +36°C° 0 mm 5 mps 752 mmHg 20%
    16:00 +36°C° 0 mm 5 mps 752 mmHg 21%
    17:00 +34°C° 0 mm 5 mps 752 mmHg 24%
    18:00 +30°C° 0 mm 5 mps 752 mmHg 26%
    19:00 +28°C° 0 mm 5 mps 752 mmHg 29%
    20:00 +28°C° 0 mm 6 mps 752 mmHg 27%
    21:00 +28°C° 0 mm 6 mps 752 mmHg 25%
    22:00 +28°C° 0 mm 6 mps 751 mmHg 23%
    23:00 +29°C° 0 mm 6 mps 751 mmHg 21%

    24 September, Sunday

    Time Temperature Precipitation Wind Pressure Humidity
    00:00 +30°C° 0 mm 6 mps 750 mmHg 18%
    01:00 +32°C° 0 mm 6 mps 750 mmHg 15%
    02:00 +30°C° 0 mm 6 mps 750 mmHg 16%
    03:00 +29°C° 0 mm 6 mps 750 mmHg 17%
    04:00 +28°C° 0 mm 6 mps 750 mmHg 18%
    05:00 +27°C° 0 mm 5 mps 751 mmHg 21%
    06:00 +27°C° 0 mm 5 mps 752 mmHg 24%
    07:00 +26°C° 0 mm 5 mps 752 mmHg 27%
    08:00 +28°C° 0 mm 5 mps 753 mmHg 25%
    09:00 +30°C° 0 mm 5 mps 753 mmHg 24%
    10:00 +33°C° 0 mm 5 mps 753 mmHg 22%
    11:00 +33°C° 0 mm 6 mps 752 mmHg 23%
    12:00 +33°C° 0 mm 7 mps 752 mmHg 24%
    13:00 +33°C° 0 mm 9 mps 751 mmHg 24%
    14:00 +33°C° 0 mm 8 mps 751 mmHg 25%
    15:00 +33°C° 0 mm 8 mps 751 mmHg 26%
    16:00 +33°C° 0 mm 7 mps 751 mmHg 26%
    17:00 +30°C° 0 mm 6 mps 751 mmHg 29%
    18:00 +28°C° 0 mm 5 mps 752 mmHg 31%
    19:00 +26°C° 0 mm 4 mps 752 mmHg 34%
    20:00 +25°C° 0 mm 4 mps 753 mmHg 35%
    21:00 +22°C° 0 mm 3 mps 754 mmHg 36%
    22:00 +21°C° 0 mm 3 mps 754 mmHg 37%
    23:00 +20°C° 0 mm 3 mps 754 mmHg 38%

    25 September, Monday

    Time Temperature Precipitation Wind Pressure Humidity
    00:00 +19°C° 0 mm 2 mps 755 mmHg 39%
    01:00 +18°C° 0 mm 2 mps 755 mmHg 39%
    02:00 +18°C° 0 mm 3 mps 755 mmHg 38%
    03:00 +18°C° 0 mm 3 mps 756 mmHg 37%
    04:00 +17°C° 0 mm 3 mps 756 mmHg 36%
    05:00 +18°C° 0 mm 3 mps 756 mmHg 36%
    06:00 +18°C° 0 mm 4 mps 757 mmHg 37%
    07:00 +18°C° 0 mm 4 mps 758 mmHg 38%
    08:00 +21°C° 0 mm 4 mps 757 mmHg 33%
    09:00 +23°C° 0 mm 4 mps 757 mmHg 29%
    10:00 +26°C° 0 mm 4 mps 757 mmHg 25%
    11:00 +27°C° 0 mm 4 mps 756 mmHg 23%
    12:00 +29°C° 0 mm 4 mps 756 mmHg 22%
    13:00 +30°C° 0 mm 4 mps 756 mmHg 20%
    14:00 +29°C° 0 mm 5 mps 756 mmHg 23%
    15:00 +28°C° 0 mm 5 mps 756 mmHg 26%
    16:00 +27°C° 0 mm 5 mps 756 mmHg 29%
    17:00 +26°C° 0 mm 5 mps 757 mmHg 32%
    18:00 +23°C° 0 mm 5 mps 758 mmHg 35%
    19:00 +22°C° 0 mm 5 mps 758 mmHg 38%
    20:00 +21°C° 0 mm 4 mps 758 mmHg 41%
    21:00 +20°C° 0 mm 3 mps 758 mmHg 43%
    22:00 +19°C° 0 mm 2 mps 759 mmHg 46%
    23:00 +18°C° 0 mm 2 mps 758 mmHg 49%

    26 September, Tuesday

    Time Temperature Precipitation Wind Pressure Humidity
    00:00 +18°C° 0 mm 2 mps 758 mmHg 51%
    01:00 +18°C° 0 mm 1 mps 758 mmHg 54%
    02:00 +16°C° 0 mm 1 mps 759 mmHg 56%
    03:00 +16°C° 0 mm 1 mps 759 mmHg 58%
    04:00 +16°C° 0 mm 1 mps 759 mmHg 59%
    05:00 +16°C° 0 mm 1 mps 759 mmHg 59%
    06:00 +18°C° 0 mm 1 mps 759 mmHg 59%
    07:00 +18°C° 0 mm 1 mps 759 mmHg 59%
    08:00 +21°C° 0 mm 1 mps 759 mmHg 52%
    09:00 +24°C° 0 mm 2 mps 758 mmHg 46%
    10:00 +27°C° 0 mm 2 mps 758 mmHg 39%
    11:00 +27°C° 0 mm 2 mps 757 mmHg 37%
    12:00 +28°C° 0 mm 3 mps 757 mmHg 35%
    13:00 +28°C° 0 mm 4 mps 756 mmHg 34%
    14:00 +28°C° 0.1 mm 4 mps 756 mmHg 39%
    15:00 +27°C° 0.1 mm 4 mps 756 mmHg 44%
    16:00 +26°C° 0.1 mm 4 mps 756 mmHg 49%
    17:00 +23°C° 0.2 mm 4 mps 756 mmHg 60%
    18:00 +21°C° 0.2 mm 5 mps 757 mmHg 70%
    19:00 +19°C° 0.2 mm 5 mps 757 mmHg 81%
    20:00 +18°C° 0 mm 4 mps 757 mmHg 84%
    21:00 +17°C° 0 mm 3 mps 758 mmHg 87%
    22:00 +17°C° 0 mm 3 mps 758 mmHg 90%
    23:00 +17°C° 0.1 mm 4 mps 759 mmHg 86%
    Show more